Location: ??????
(41.3747°N, 22.5491°E)
Time: 07:50:49
(UTC+00:00)

Cosmos 1603 - Pass Details

Date: 01 December 2020
Orbit: 831 x 859 km, 71.0° (Epoch: 17 January)

Event Time Altitude Azimuth Distance (km) Brightness Sun altitude
Rises 16:02:06 0° 186° (S) 3,375 7.2 -11.3°
Reaches altitude 10° 16:04:36 10° 181° (S) 2,441 6.4 -11.7°
Maximum altitude 16:09:58 49° 108° (ESE) 1,066 3.9 -12.7°
Enters shadow 16:14:57 12° 36° (NE) 2,305 5.5 -13.6°
